Fulton Cnty AP, Rochester, IN, IN

2:11 AM EDT on April 30, 2017 (GMT -0400)
Fulton County

Weather History for KRCR - December, 2013

Change the Weather History Date:

Thursday, December 12, 2013

  Actual Average Record
Temperature  
Mean Temperature 13 °F -  
Max Temperature 26 °F 37 °F 68 °F (2015)
Min Temperature 0 °F 20 °F 0 °F (2013)
Degree Days  
Heating Degree Days 52    
Moisture  
Dew Point 2 °F    
Average Humidity 65    
Maximum Humidity 78    
Minimum Humidity 46    
Precipitation  
Precipitation 0.00 in - - ()
Sea Level Pressure  
Sea Level Pressure 30.40 in    
Wind  
Wind Speed 8 mph (SW)    
Max Wind Speed 15 mph    
Max Gust Speed 21 mph    
Visibility 10 miles    
Events      
Averages and records for this station are not official NWS values.
T = Trace of Precipitation, MM = Missing Value Source: NWS Daily Summary

Daily Weather History Graph

Daily Weather History Graph

Search for Another Location

Airport or City:

Trip Planner

Search our weather history database for the weather conditions in past years. The results will help you decide how hot, cold, wet, or windy it might be!

Date:

Astronomy

Dec. 12, 2013 Rise Set
Actual Time 8:00 AM EST 5:16 PM EST
Civil Twilight 7:29 AM EST 5:47 PM EST
Nautical Twilight 6:55 AM EST 6:22 PM EST
Astronomical Twilight 6:21 AM EST 6:55 PM EST
Moon 2:24 PM EST (12/12) 3:20 AM EST (12/12)
Length of Visible Light 10h 17m
Length of Day
9h 15m
Waxing Gibbous, 80% of the Moon is Illuminated
Dec 12
Waxing Gibbous
Dec 17
Full
Dec 25
Last Quarter
Jan 1
New
Jan 7
First Quarter

Hourly Weather History & Observations

Time (EST) Temp. Windchill Dew Point Humidity Pressure Visibility Wind Dir Wind Speed Gust Speed Precip Events Conditions
12:15 AM 5.0 °F -6.9 °F -4.0 °F 66% 30.52 in 10.0 mi WSW 6.9 mph - N/A   Clear
12:35 AM 5.0 °F -8.1 °F -2.2 °F 72% 30.53 in 10.0 mi West 8.1 mph - N/A   Clear
12:55 AM 5.0 °F -9.1 °F -2.2 °F 72% 30.53 in 10.0 mi WNW 9.2 mph - N/A   Clear
1:15 AM 5.0 °F -5.6 °F -2.2 °F 72% 30.52 in 10.0 mi West 5.8 mph - N/A   Clear
1:35 AM 5.0 °F -4.1 °F -2.2 °F 72% 30.52 in 10.0 mi West 4.6 mph - N/A   Clear
1:55 AM 5.0 °F -4.1 °F -2.2 °F 72% 30.52 in 10.0 mi West 4.6 mph - N/A   Clear
2:15 AM 3.2 °F -6.2 °F -4.0 °F 72% 30.51 in 10.0 mi WSW 4.6 mph - N/A   Clear
2:35 AM 5.0 °F -5.6 °F -4.0 °F 66% 30.52 in 10.0 mi WSW 5.8 mph - N/A   Clear
2:55 AM 3.2 °F -7.8 °F -4.0 °F 72% 30.52 in 10.0 mi WSW 5.8 mph - N/A   Clear
3:15 AM 3.2 °F -6.2 °F -4.0 °F 72% 30.51 in 10.0 mi West 4.6 mph - N/A   Clear
3:35 AM 1.4 °F -8.3 °F -5.8 °F 72% 30.52 in 10.0 mi WSW 4.6 mph - N/A   Clear
3:55 AM -0.4 °F -10.4 °F -5.8 °F 78% 30.50 in 10.0 mi SW 4.6 mph - N/A   Clear
4:15 AM -0.4 °F -12.0 °F -5.8 °F 78% 30.50 in 10.0 mi WSW 5.8 mph - N/A   Clear
4:35 AM 1.4 °F -12.5 °F -5.8 °F 72% 30.52 in 10.0 mi WSW 8.1 mph - N/A   Clear
4:55 AM -0.4 °F -12.0 °F -5.8 °F 78% 30.51 in 10.0 mi WSW 5.8 mph - N/A   Clear
5:15 AM 1.4 °F -9.9 °F -5.8 °F 72% 30.51 in 10.0 mi WSW 5.8 mph - N/A   Clear
5:35 AM -0.4 °F -10.4 °F -5.8 °F 78% 30.50 in 10.0 mi WSW 4.6 mph - N/A   Clear
5:55 AM -0.4 °F -10.4 °F -5.8 °F 78% 30.50 in 10.0 mi SW 4.6 mph - N/A   Clear
6:15 AM -0.4 °F -10.4 °F -5.8 °F 78% 30.50 in 10.0 mi SW 4.6 mph - N/A   Clear
6:35 AM -0.4 °F -12.0 °F -5.8 °F 78% 30.50 in 10.0 mi SW 5.8 mph - N/A   Clear
6:55 AM -0.4 °F -10.4 °F -5.8 °F 78% 30.49 in 10.0 mi SW 4.6 mph - N/A   Clear
7:15 AM -0.4 °F -10.4 °F -5.8 °F 78% 30.50 in 10.0 mi SW 4.6 mph - N/A   Clear
7:35 AM -0.4 °F -10.4 °F -5.8 °F 78% 30.49 in 10.0 mi SW 4.6 mph - N/A   Clear
7:55 AM -0.4 °F -10.4 °F -5.8 °F 78% 30.48 in 10.0 mi SW 4.6 mph - N/A   Clear
8:15 AM 1.4 °F -9.9 °F -5.8 °F 72% 30.49 in 10.0 mi SW 5.8 mph - N/A   Clear
8:35 AM 1.4 °F -12.5 °F -5.8 °F 72% 30.49 in 10.0 mi SW 8.1 mph - N/A   Clear
8:55 AM 3.2 °F -9.1 °F -4.0 °F 72% 30.48 in 10.0 mi SW 6.9 mph - N/A   Clear
9:15 AM 3.2 °F -11.3 °F -4.0 °F 72% 30.47 in 10.0 mi SW 9.2 mph - N/A   Clear
9:35 AM 5.0 °F -9.1 °F -4.0 °F 66% 30.47 in 10.0 mi SW 9.2 mph - N/A   Scattered Clouds
9:55 AM 5.0 °F -8.1 °F -2.2 °F 72% 30.47 in 10.0 mi SSW 8.1 mph - N/A   Mostly Cloudy
10:15 AM 8.6 °F -4.7 °F -0.4 °F 67% 30.46 in 10.0 mi SSW 9.2 mph - N/A   Scattered Clouds
10:35 AM 8.6 °F -3.7 °F -0.4 °F 67% 30.45 in 10.0 mi SSW 8.1 mph - N/A   Scattered Clouds
10:55 AM 10.4 °F -3.3 °F -0.4 °F 62% 30.45 in 10.0 mi SSW 10.4 mph - N/A   Mostly Cloudy
11:15 AM 12.2 °F -1.0 °F 1.4 °F 62% 30.44 in 10.0 mi SSW 10.4 mph - N/A   Mostly Cloudy
11:35 AM 12.2 °F -1.0 °F 1.4 °F 62% 30.43 in 10.0 mi SSW 10.4 mph - N/A   Overcast
11:55 AM 14.0 °F -0.8 °F 1.4 °F 57% 30.41 in 10.0 mi SSW 13.8 mph 17.3 mph N/A   Mostly Cloudy
12:15 PM 17.6 °F 5.7 °F 3.2 °F 53% 30.40 in 10.0 mi SW 10.4 mph 17.3 mph N/A   Scattered Clouds
12:35 PM 17.6 °F 5.0 °F 1.4 °F 49% 30.38 in 10.0 mi SW 11.5 mph - N/A   Clear
12:55 PM 19.4 °F 6.6 °F 3.2 °F 49% 30.37 in 10.0 mi SW 12.7 mph - N/A   Clear
1:15 PM 19.4 °F 7.2 °F 3.2 °F 49% 30.36 in 10.0 mi SW 11.5 mph 20.7 mph N/A   Clear
1:35 PM 21.2 °F 8.3 °F 5.0 °F 50% 30.35 in 10.0 mi SW 13.8 mph - N/A   Clear
1:55 PM 23.0 °F 11.1 °F 5.0 °F 46% 30.34 in 10.0 mi WSW 12.7 mph 18.4 mph N/A   Clear
2:15 PM 23.0 °F 10.1 °F 6.8 °F 50% 30.33 in 10.0 mi WSW 15.0 mph 20.7 mph N/A   Clear
2:35 PM 24.8 °F 12.9 °F 8.6 °F 50% 30.32 in 10.0 mi WSW 13.8 mph 18.4 mph N/A   Clear
2:55 PM 24.8 °F 12.9 °F 8.6 °F 50% 30.31 in 10.0 mi WSW 13.8 mph 19.6 mph N/A   Clear
3:15 PM 26.6 °F 16.8 °F 8.6 °F 47% 30.31 in 10.0 mi WSW 10.4 mph 16.1 mph N/A   Clear
3:35 PM 26.6 °F 16.2 °F 10.4 °F 51% 30.31 in 10.0 mi WSW 11.5 mph - N/A   Clear
3:55 PM 26.6 °F 15.2 °F 10.4 °F 51% 30.31 in 10.0 mi WSW 13.8 mph - N/A   Clear
4:15 PM 26.6 °F 16.8 °F 12.2 °F 55% 30.31 in 10.0 mi West 10.4 mph 19.6 mph N/A   Clear
4:35 PM 26.6 °F 16.8 °F 12.2 °F 55% 30.30 in 10.0 mi WSW 10.4 mph 17.3 mph N/A   Clear
4:55 PM 24.8 °F 14.0 °F 12.2 °F 59% 30.30 in 10.0 mi WSW 11.5 mph - N/A   Clear
5:15 PM 23.0 °F 13.1 °F 12.2 °F 63% 30.29 in 10.0 mi WSW 9.2 mph 16.1 mph N/A   Clear
5:35 PM 23.0 °F 13.1 °F 12.2 °F 63% 30.29 in 10.0 mi WSW 9.2 mph - N/A   Clear
5:55 PM 23.0 °F 13.1 °F 12.2 °F 63% 30.30 in 10.0 mi WSW 9.2 mph - N/A   Clear
6:15 PM 23.0 °F 13.9 °F 12.2 °F 63% 30.29 in 10.0 mi WSW 8.1 mph - N/A   Clear
6:35 PM 23.0 °F 13.9 °F 12.2 °F 63% 30.29 in 10.0 mi WSW 8.1 mph - N/A   Clear
6:55 PM 21.2 °F 11.7 °F 12.2 °F 68% 30.29 in 10.0 mi SW 8.1 mph - N/A   Clear
7:15 PM 21.2 °F 11.7 °F 12.2 °F 68% 30.29 in 10.0 mi SW 8.1 mph - N/A   Clear
7:35 PM 21.2 °F 10.9 °F 10.4 °F 63% 30.29 in 10.0 mi SW 9.2 mph - N/A   Clear
7:55 PM 21.2 °F 11.7 °F 10.4 °F 63% 30.28 in 10.0 mi SW 8.1 mph - N/A   Clear
8:15 PM 21.2 °F 11.7 °F 10.4 °F 63% 30.29 in 10.0 mi SW 8.1 mph - N/A   Clear
8:35 PM 21.2 °F 11.7 °F 8.6 °F 58% 30.28 in 10.0 mi SW 8.1 mph - N/A   Clear
8:55 PM 19.4 °F 10.4 °F 8.6 °F 63% 30.28 in 10.0 mi SSW 6.9 mph - N/A   Clear
9:15 PM 19.4 °F 9.5 °F 6.8 °F 58% 30.28 in 10.0 mi SW 8.1 mph - N/A   Clear
9:35 PM 19.4 °F 10.4 °F 6.8 °F 58% 30.28 in 10.0 mi SSW 6.9 mph - N/A   Clear
9:55 PM 19.4 °F 9.5 °F 6.8 °F 58% 30.27 in 10.0 mi SSW 8.1 mph - N/A   Clear
10:15 PM 19.4 °F 9.5 °F 6.8 °F 58% 30.26 in 10.0 mi SSW 8.1 mph - N/A   Clear
10:35 PM 19.4 °F 9.5 °F 6.8 °F 58% 30.26 in 10.0 mi SW 8.1 mph - N/A   Clear
10:55 PM 19.4 °F 11.5 °F 6.8 °F 58% 30.26 in 10.0 mi SW 5.8 mph - N/A   Clear
11:15 PM 17.6 °F 8.2 °F 6.8 °F 63% 30.26 in 10.0 mi SW 6.9 mph - N/A   Clear
11:35 PM 19.4 °F 10.4 °F 8.6 °F 63% 30.25 in 10.0 mi SW 6.9 mph - N/A   Clear
11:55 PM 19.4 °F 10.4 °F 8.6 °F 63% 30.25 in 10.0 mi SW 6.9 mph - N/A   Clear